Location: Namasale
(1.5000°N, 32.6167°E)
Time: 08:36:23
(UTC+00:00)

Vanguard 1 Rocket - Pass Details

Date: 20 April 2021
Orbit: 652 x 4225 km, 34.3° (Epoch: 15 May)

Event Time Altitude Azimuth Distance (km) Brightness Sun altitude
Rises 07:30:33 0° 237° (WSW) 7,581 11.7 54.3°
Reaches altitude 10° 07:36:28 10° 239° (WSW) 6,055 11.4 55.7°
Maximum altitude 07:52:51 69° 320° (NW) 1,947 10.0 59.6°
Drops below altitude 10° 08:00:55 10° 43° (NE) 3,169 10.7 61.5°
Sets 08:03:03 0° 46° (NE) 3,865 11.0 62.0°
